| time (UTC) | temp F | wind direction | speed MPH | gust MPH | rain 1hr in | rain 24hr in | rain mn in | humidity % | barometer mb |
| 20260505024115 | 54 | 176 | 3.0 | 4.0 | 0.00 | 0.00 | 0.00 | 97 | 1022.0 |
| 20260505023114 | 55 | 155 | 3.0 | 7.0 | 0.00 | 0.00 | 0.00 | 97 | 1022.0 |
| 20260505022114 | 55 | 180 | 0.0 | 1.0 | 0.00 | 0.00 | 0.00 | 97 | 1022.0 |
| 20260505021138 | 55 | 180 | 1.0 | 3.0 | 0.00 | 0.00 | 0.00 | 97 | 1022.0 |
| 20260505020214 | 55 | 180 | 0.0 | 1.0 | 0.00 | 0.00 | 0.00 | 96 | 1022.1 |
| 20260505015215 | 55 | 180 | 0.0 | 2.0 | 0.00 | 0.00 | 0.00 | 96 | 1022.2 |
| 20260505014214 | 55 | 180 | 1.0 | 2.0 | 0.00 | 0.00 | 0.00 | 96 | 1022.1 |
| 20260505012315 | 55 | 180 | 1.0 | 3.0 | 0.00 | 0.00 | 0.00 | 96 | 1022.3 |
| 20260505011315 | 55 | 180 | 0.0 | 0.0 | 0.00 | 0.00 | 0.00 | 96 | 1022.3 |
| 20260505010414 | 55 | 180 | 1.0 | 2.0 | 0.00 | 0.00 | 0.00 | 96 | 1022.4 |
| 20260505005429 | 55 | 180 | 0.0 | 2.0 | 0.00 | 0.00 | 0.00 | 96 | 1022.4 |
| 20260505002515 | 56 | 180 | 0.0 | 1.0 | 0.00 | 0.00 | 0.00 | 95 | 1022.5 |
| 20260505002414 | 56 | 180 | 0.0 | 0.0 | 0.00 | 0.00 | 0.00 | 95 | 1022.6 |
| 20260505001415 | 56 | 180 | 0.0 | 0.0 | 0.00 | 0.00 | 0.00 | 95 | 1022.6 |
| 20260505000415 | 56 | 180 | 1.0 | 2.0 | 0.00 | 0.00 | 0.00 | 94 | 1022.7 |
| 20260504235513 | 56 | 180 | 0.0 | 1.0 | 0.00 | 0.00 | 0.00 | 94 | 1022.8 |
| 20260504234514 | 56 | 180 | 1.0 | 1.0 | 0.00 | 0.00 | 0.00 | 93 | 1022.8 |
| 20260504233513 | 56 | 180 | 1.0 | 2.0 | 0.00 | 0.00 | 0.00 | 93 | 1023.0 |
| 20260504231513 | 56 | 135 | 0.0 | 0.0 | 0.00 | 0.00 | 0.00 | 93 | 1023.0 |
| 20260504230612 | 56 | 135 | 0.0 | 0.0 | 0.00 | 0.00 | 0.00 | 93 | 1023.1 |
| 20260504225613 | 56 | 135 | 0.0 | 0.0 | 0.00 | 0.00 | 0.00 | 93 | 1023.1 |
| 20260504223714 | 56 | 135 | 0.0 | 0.0 | 0.00 | 0.00 | 0.00 | 93 | 1023.4 |
| 20260504222715 | 56 | 135 | 0.0 | 1.0 | 0.00 | 0.00 | 0.00 | 92 | 1023.5 |
| 20260504222614 | 56 | 135 | 0.0 | 0.0 | 0.00 | 0.00 | 0.00 | 92 | 1023.4 |
| 20260504221615 | 56 | 135 | 1.0 | 3.0 | 0.00 | 0.00 | 0.00 | 92 | 1023.6 |
| 20260504220714 | 56 | 135 | 0.0 | 0.0 | 0.00 | 0.00 | 0.00 | 92 | 1023.6 |
| 20260504215722 | 56 | 135 | 1.0 | 2.0 | 0.00 | 0.00 | 0.00 | 92 | 1023.7 |
| 20260504214723 | 56 | 135 | 0.0 | 0.0 | 0.00 | 0.00 | 0.00 | 92 | 1023.7 |
| 20260504212723 | 56 | 135 | 0.0 | 2.0 | 0.00 | 0.00 | 0.00 | 92 | 1023.7 |
| 20260504211722 | 57 | 135 | 0.0 | 1.0 | 0.00 | 0.00 | 0.00 | 91 | 1023.8 |
| 20260504210722 | 57 | 135 | 0.0 | 0.0 | 0.00 | 0.00 | 0.00 | 91 | 1023.8 |
| 20260504205722 | 57 | 135 | 1.0 | 3.0 | 0.00 | 0.00 | 0.00 | 91 | 1023.9 |
| 20260504204722 | 58 | 135 | 2.0 | 4.0 | 0.00 | 0.00 | 0.00 | 91 | 1023.9 |
| 20260504202821 | 58 | 135 | 1.0 | 5.0 | 0.00 | 0.00 | 0.00 | 90 | 1024.1 |
| 20260504202746 | 58 | 135 | 1.0 | 1.0 | 0.00 | 0.00 | 0.00 | 90 | 1024.0 |
| 20260504201823 | 58 | 135 | 3.0 | 5.0 | 0.00 | 0.00 | 0.00 | 89 | 1024.0 |
| 20260504200824 | 58 | 104 | 1.0 | 2.0 | 0.00 | 0.00 | 0.00 | 89 | 1023.8 |
| 20260504195824 | 58 | 180 | 2.0 | 4.0 | 0.00 | 0.00 | 0.00 | 88 | 1023.8 |
| 20260504194922 | 58 | 135 | 0.0 | 0.0 | 0.00 | 0.00 | 0.00 | 87 | 1023.7 |
| 20260504193923 | 58 | 135 | 0.0 | 1.0 | 0.00 | 0.00 | 0.00 | 87 | 1023.9 |
| 20260504191922 | 59 | 135 | 0.0 | 0.0 | 0.00 | 0.00 | 0.00 | 86 | 1023.6 |
| 20260504185923 | 59 | 135 | 0.0 | 1.0 | 0.00 | 0.00 | 0.00 | 84 | 1023.6 |
| 20260504184921 | 60 | 135 | 0.0 | 1.0 | 0.00 | 0.00 | 0.00 | 83 | 1023.7 |
| 20260504184822 | 60 | 135 | 0.0 | 0.0 | 0.00 | 0.00 | 0.00 | 83 | 1023.7 |
| 20260504183921 | 60 | 135 | 3.0 | 4.0 | 0.00 | 0.00 | 0.00 | 83 | 1023.7 |
| 20260504182923 | 61 | 135 | 2.0 | 4.0 | 0.00 | 0.00 | 0.00 | 82 | 1023.5 |
| 20260504181922 | 61 | 135 | 1.0 | 3.0 | 0.00 | 0.00 | 0.00 | 81 | 1023.6 |
| 20260504180922 | 62 | 135 | 3.0 | 5.0 | 0.00 | 0.00 | 0.00 | 79 | 1023.5 |
| 20260504174021 | 64 | 135 | 4.0 | 5.0 | 0.00 | 0.00 | 0.00 | 74 | 1023.4 |
| 20260504173022 | 65 | 135 | 5.0 | 7.0 | 0.00 | 0.00 | 0.00 | 74 | 1023.4 |
| 20260504172922 | 65 | 135 | 4.0 | 7.0 | 0.00 | 0.00 | 0.00 | 73 | 1023.3 |
| 20260504171922 | 65 | 135 | 2.0 | 4.0 | 0.00 | 0.00 | 0.00 | 73 | 1023.4 |
| 20260504170940 | 65 | 135 | 4.0 | 6.0 | 0.00 | 0.00 | 0.00 | 72 | 1023.3 |
| 20260504170844 | 65 | 132 | 5.0 | 7.0 | 0.00 | 0.00 | 0.00 | 72 | 1023.2 |
| 20260504140721 | 68 | 177 | 0.0 | 3.0 | 0.00 | 0.00 | 0.00 | 71 | 1023.8 |
| 20260504130625 | 68 | 112 | 2.0 | 3.0 | 0.00 | 0.00 | 0.00 | 71 | 1024.2 |
| 20260504110721 | 64 | 112 | 2.0 | 4.0 | 0.00 | 0.00 | 0.00 | 79 | 1024.5 |
| 20260504081423 | 61 | 126 | 2.0 | 4.0 | 0.00 | 0.00 | 0.00 | 88 | 1024.6 |
| 20260504050021 | 53 | 135 | 0.0 | 0.0 | 0.00 | 0.00 | 0.00 | 97 | 1023.6 |
| 20260504045024 | 53 | 135 | 0.0 | 0.0 | 0.00 | 0.00 | 0.00 | 97 | 1023.5 |
| 20260504044021 | 52 | 135 | 1.0 | 2.0 | 0.00 | 0.00 | 0.00 | 97 | 1023.6 |
| 20260504043022 | 52 | 135 | 1.0 | 2.0 | 0.00 | 0.00 | 0.00 | 97 | 1023.4 |
| 20260504041020 | 52 | 135 | 0.0 | 0.0 | 0.00 | 0.00 | 0.00 | 97 | 1023.4 |
| 20260504040030 | 52 | 135 | 0.0 | 1.0 | 0.00 | 0.00 | 0.00 | 97 | 1023.4 |
| 20260504035021 | 52 | 135 | 0.0 | 0.0 | 0.00 | 0.00 | 0.00 | 97 | 1023.4 |
| 20260504034022 | 52 | 135 | 1.0 | 2.0 | 0.00 | 0.00 | 0.00 | 97 | 1023.4 |
| 20260504025121 | 52 | 135 | 1.0 | 3.0 | 0.00 | 0.00 | 0.00 | 96 | 1023.5 |
| 20260504025023 | 52 | 135 | 0.0 | 1.0 | 0.00 | 0.00 | 0.00 | 96 | 1023.4 |